Year,Month,Day,Hour,Minute,Value (Times are PST for temperature in C)
2017,08,14,12,54,14.80
2017,08,14,12,55,14.70
2017,08,14,12,56,14.70
2017,08,14,12,57,14.70
2017,08,14,12,58,14.70
2017,08,14,12,59,14.70
2017,08,14,13,00,14.70
2017,08,14,13,01,14.70
2017,08,14,13,02,14.70
2017,08,14,13,03,14.80
2017,08,14,13,04,14.80
2017,08,14,13,05,14.80
2017,08,14,13,06,14.80
2017,08,14,13,07,14.80
2017,08,14,13,08,14.80
2017,08,14,13,09,14.80
2017,08,14,13,10,14.80
2017,08,14,13,11,14.70
2017,08,14,13,12,14.70
2017,08,14,13,13,14.70
2017,08,14,13,14,14.80
2017,08,14,13,15,14.80
2017,08,14,13,16,14.80
2017,08,14,13,17,14.80
2017,08,14,13,18,14.80
2017,08,14,13,19,14.80
2017,08,14,13,20,14.80
2017,08,14,13,21,14.80
2017,08,14,13,22,14.80
2017,08,14,13,23,14.90
2017,08,14,13,24,14.90
2017,08,14,13,25,14.90
2017,08,14,13,26,14.90
2017,08,14,13,27,14.90
2017,08,14,13,28,14.90
2017,08,14,13,29,14.90
2017,08,14,13,30,14.90
2017,08,14,13,31,14.80
2017,08,14,13,32,14.80
2017,08,14,13,33,14.80
2017,08,14,13,34,14.90
2017,08,14,13,35,14.90
2017,08,14,13,36,14.90
2017,08,14,13,37,15.00
2017,08,14,13,38,15.00
2017,08,14,13,39,15.00
2017,08,14,13,40,15.00
2017,08,14,13,41,15.10
2017,08,14,13,42,15.10
2017,08,14,13,43,15.10
2017,08,14,13,44,15.10
2017,08,14,13,45,15.10
2017,08,14,13,46,15.00
2017,08,14,13,47,15.00
2017,08,14,13,48,15.00
2017,08,14,13,49,15.00
2017,08,14,13,50,15.00
2017,08,14,13,51,15.10
2017,08,14,13,52,15.10
2017,08,14,13,53,15.20
2017,08,14,13,54,15.20
2017,08,14,13,55,15.20
2017,08,14,13,56,15.20
2017,08,14,13,57,15.20
2017,08,14,13,58,15.20
2017,08,14,13,59,15.20
2017,08,14,14,00,15.20
2017,08,14,14,01,15.20
2017,08,14,14,02,15.20
2017,08,14,14,03,15.20
2017,08,14,14,04,15.20
2017,08,14,14,05,15.20
2017,08,14,14,06,15.30
2017,08,14,14,07,15.30
2017,08,14,14,08,15.20
2017,08,14,14,09,15.20
2017,08,14,14,10,15.20
2017,08,14,14,11,15.20
2017,08,14,14,12,15.20
2017,08,14,14,13,15.20
2017,08,14,14,14,15.10
2017,08,14,14,15,15.10
2017,08,14,14,16,15.20
2017,08,14,14,17,15.20
2017,08,14,14,18,15.20
2017,08,14,14,19,15.20
2017,08,14,14,20,15.20
2017,08,14,14,21,15.30
2017,08,14,14,22,15.30
2017,08,14,14,23,15.30
2017,08,14,14,24,15.40
2017,08,14,14,25,15.40
2017,08,14,14,26,15.50
2017,08,14,14,27,15.50
2017,08,14,14,28,15.60
2017,08,14,14,29,15.60
2017,08,14,14,30,15.60
2017,08,14,14,31,15.60
2017,08,14,14,32,15.60
2017,08,14,14,33,15.60
2017,08,14,14,34,15.60
2017,08,14,14,35,15.60
2017,08,14,14,36,15.60
2017,08,14,14,37,15.70
2017,08,14,14,38,15.70
2017,08,14,14,39,15.70
2017,08,14,14,40,15.70
2017,08,14,14,41,15.70
2017,08,14,14,42,15.70
2017,08,14,14,43,15.70
2017,08,14,14,44,15.70
2017,08,14,14,45,15.70
2017,08,14,14,46,15.70
2017,08,14,14,47,15.70
2017,08,14,14,48,15.60
2017,08,14,14,49,15.60
2017,08,14,14,50,15.60
2017,08,14,14,51,15.60
2017,08,14,14,52,15.60
2017,08,14,14,53,15.60
2017,08,14,14,54,15.60
2017,08,14,14,55,15.70
2017,08,14,14,56,15.70
2017,08,14,14,57,15.80
2017,08,14,14,58,15.80
2017,08,14,14,59,15.80
2017,08,14,15,00,15.80
2017,08,14,15,01,15.70
2017,08,14,15,02,15.70
2017,08,14,15,03,15.70
2017,08,14,15,04,15.70
2017,08,14,15,05,15.70
2017,08,14,15,06,15.70
2017,08,14,15,07,15.60
2017,08,14,15,08,15.60
2017,08,14,15,09,15.60
2017,08,14,15,10,15.70
2017,08,14,15,11,15.70
2017,08,14,15,12,15.80
2017,08,14,15,13,15.80
2017,08,14,15,14,15.80
2017,08,14,15,15,15.80
2017,08,14,15,16,15.80
2017,08,14,15,17,15.90
2017,08,14,15,18,15.90
2017,08,14,15,19,15.90
2017,08,14,15,20,15.90
2017,08,14,15,21,16.00
2017,08,14,15,22,16.00
2017,08,14,15,23,16.10
2017,08,14,15,24,16.00
2017,08,14,15,25,16.10
2017,08,14,15,26,16.10
2017,08,14,15,27,16.10
2017,08,14,15,28,16.10
2017,08,14,15,29,16.10
2017,08,14,15,30,16.00
2017,08,14,15,31,15.90
2017,08,14,15,32,15.90
2017,08,14,15,33,15.80
2017,08,14,15,34,15.70
2017,08,14,15,35,15.60
2017,08,14,15,36,15.50
2017,08,14,15,37,15.50
2017,08,14,15,38,15.40
2017,08,14,15,39,15.30
2017,08,14,15,40,15.30
2017,08,14,15,41,15.20
2017,08,14,15,42,15.20
2017,08,14,15,43,15.20
2017,08,14,15,44,15.10
2017,08,14,15,45,15.20
2017,08,14,15,46,15.20
2017,08,14,15,47,15.20
2017,08,14,15,48,15.20
2017,08,14,15,49,15.30
2017,08,14,15,50,15.30
2017,08,14,15,51,15.30
2017,08,14,15,52,15.30
2017,08,14,15,53,15.30
2017,08,14,15,54,15.30
2017,08,14,15,55,15.40
2017,08,14,15,56,15.40
2017,08,14,15,57,15.30
2017,08,14,15,58,15.30
2017,08,14,15,59,15.30
2017,08,14,16,00,15.30
2017,08,14,16,01,15.30
2017,08,14,16,02,15.30
2017,08,14,16,03,15.30
2017,08,14,16,04,15.30
2017,08,14,16,05,15.30
2017,08,14,16,06,15.30
2017,08,14,16,07,15.30
2017,08,14,16,08,15.30
2017,08,14,16,09,15.30
2017,08,14,16,10,15.20
2017,08,14,16,11,15.10
2017,08,14,16,12,15.10
2017,08,14,16,13,15.10
2017,08,14,16,14,15.10
2017,08,14,16,15,15.10
2017,08,14,16,16,15.00
2017,08,14,16,17,15.00
2017,08,14,16,18,15.00
2017,08,14,16,19,15.00
2017,08,14,16,20,15.00
2017,08,14,16,21,15.00
2017,08,14,16,22,15.00
2017,08,14,16,23,15.10
2017,08,14,16,24,15.00
2017,08,14,16,25,15.00
2017,08,14,16,26,15.10
2017,08,14,16,27,15.10
2017,08,14,16,28,15.10
2017,08,14,16,29,15.10
2017,08,14,16,30,15.10
2017,08,14,16,31,15.10
2017,08,14,16,32,15.00
2017,08,14,16,33,15.00
2017,08,14,16,34,15.00
2017,08,14,16,35,15.00
2017,08,14,16,36,15.10
2017,08,14,16,37,15.10
2017,08,14,16,38,15.10
2017,08,14,16,39,15.10
2017,08,14,16,40,15.20
2017,08,14,16,41,15.20
2017,08,14,16,42,15.20
2017,08,14,16,43,15.20
2017,08,14,16,44,15.20
2017,08,14,16,45,15.20
2017,08,14,16,46,15.10
2017,08,14,16,47,15.20
2017,08,14,16,48,15.20
2017,08,14,16,49,15.10
2017,08,14,16,50,15.10
2017,08,14,16,51,15.00
2017,08,14,16,52,15.00
2017,08,14,16,53,14.90
2017,08,14,16,54,14.90
2017,08,14,16,55,14.90
2017,08,14,16,56,14.80
2017,08,14,16,57,14.80
2017,08,14,16,58,14.80
2017,08,14,16,59,14.80
2017,08,14,17,00,14.80
2017,08,14,17,01,14.80
2017,08,14,17,02,14.90
2017,08,14,17,03,14.90
2017,08,14,17,04,14.90
2017,08,14,17,05,15.00
2017,08,14,17,06,15.00
2017,08,14,17,07,15.10
2017,08,14,17,08,15.10
2017,08,14,17,09,15.20
2017,08,14,17,10,15.20
2017,08,14,17,11,15.30
2017,08,14,17,12,15.30
2017,08,14,17,13,15.40
2017,08,14,17,14,15.50
2017,08,14,17,15,15.50
2017,08,14,17,16,15.50
2017,08,14,17,17,15.40
2017,08,14,17,18,15.30
2017,08,14,17,19,15.30
2017,08,14,17,20,15.30
2017,08,14,17,21,15.30
2017,08,14,17,22,15.30
2017,08,14,17,23,15.30
2017,08,14,17,24,15.20
2017,08,14,17,25,15.20
2017,08,14,17,26,15.30
2017,08,14,17,27,15.30
2017,08,14,17,28,15.40
2017,08,14,17,29,15.40
2017,08,14,17,30,15.50
2017,08,14,17,31,15.50
2017,08,14,17,32,15.60
2017,08,14,17,33,15.60
2017,08,14,17,34,15.60
2017,08,14,17,35,15.70
2017,08,14,17,36,15.70
2017,08,14,17,37,15.80
2017,08,14,17,38,15.80
2017,08,14,17,39,15.80
2017,08,14,17,40,15.80
2017,08,14,17,41,15.80
2017,08,14,17,42,15.80
2017,08,14,17,43,15.80
2017,08,14,17,44,15.80
2017,08,14,17,45,15.80
2017,08,14,17,46,15.90
2017,08,14,17,47,15.90
2017,08,14,17,48,15.90
2017,08,14,17,49,15.90
2017,08,14,17,50,15.90
2017,08,14,17,51,15.90
2017,08,14,17,52,15.90
2017,08,14,17,53,15.80
2017,08,14,17,54,15.80
2017,08,14,17,55,15.70
2017,08,14,17,56,15.70
2017,08,14,17,57,15.60
2017,08,14,17,58,15.50
2017,08,14,17,59,15.40
2017,08,14,18,00,15.30
2017,08,14,18,01,15.30
2017,08,14,18,02,15.20
2017,08,14,18,03,15.10
2017,08,14,18,04,15.10
2017,08,14,18,05,15.00
2017,08,14,18,06,15.00
2017,08,14,18,07,15.00
2017,08,14,18,08,14.90
2017,08,14,18,09,14.90
2017,08,14,18,10,14.80
2017,08,14,18,11,14.80
2017,08,14,18,12,14.80
2017,08,14,18,13,14.80
2017,08,14,18,14,14.80
2017,08,14,18,15,14.70
2017,08,14,18,16,14.70
2017,08,14,18,17,14.70
2017,08,14,18,18,14.70
2017,08,14,18,19,14.70
2017,08,14,18,20,14.70
2017,08,14,18,21,14.60
2017,08,14,18,22,14.60
2017,08,14,18,23,14.50
2017,08,14,18,24,14.50
2017,08,14,18,25,14.50
2017,08,14,18,26,14.40
2017,08,14,18,27,14.40
2017,08,14,18,28,14.40
2017,08,14,18,29,14.40
2017,08,14,18,30,14.30
2017,08,14,18,31,14.30
2017,08,14,18,32,14.30
2017,08,14,18,33,14.30
2017,08,14,18,34,14.30
2017,08,14,18,35,14.30
2017,08,14,18,36,14.30
2017,08,14,18,37,14.30
2017,08,14,18,38,14.30
2017,08,14,18,39,14.30
2017,08,14,18,40,14.30
2017,08,14,18,41,14.30
2017,08,14,18,42,14.30
2017,08,14,18,43,14.30
2017,08,14,18,44,14.30
2017,08,14,18,45,14.30
2017,08,14,18,46,14.30
2017,08,14,18,47,14.30
2017,08,14,18,48,14.20
2017,08,14,18,49,14.20
2017,08,14,18,50,14.20
2017,08,14,18,51,14.20
2017,08,14,18,52,14.20
2017,08,14,18,53,14.30
2017,08,14,18,54,14.30
2017,08,14,18,55,14.30
2017,08,14,18,56,14.30
2017,08,14,18,57,14.40
2017,08,14,18,58,14.50
2017,08,14,18,59,14.50
2017,08,14,19,00,14.60
2017,08,14,19,01,14.60
2017,08,14,19,02,14.60
2017,08,14,19,03,14.60
2017,08,14,19,04,14.70
2017,08,14,19,05,14.70
2017,08,14,19,06,14.80
2017,08,14,19,07,14.80
2017,08,14,19,08,14.90
2017,08,14,19,09,14.90
2017,08,14,19,10,14.90
2017,08,14,19,11,14.90
2017,08,14,19,12,14.90
2017,08,14,19,13,14.90
2017,08,14,19,14,15.00
2017,08,14,19,15,15.00
2017,08,14,19,16,14.90
2017,08,14,19,17,14.90
2017,08,14,19,18,14.90
2017,08,14,19,19,14.90
2017,08,14,19,20,14.90
2017,08,14,19,21,14.90
2017,08,14,19,22,14.80
2017,08,14,19,23,14.80
2017,08,14,19,24,14.70
2017,08,14,19,25,14.70
2017,08,14,19,26,14.70
2017,08,14,19,27,14.70
2017,08,14,19,28,14.60
2017,08,14,19,29,14.60
2017,08,14,19,30,14.60
2017,08,14,19,31,14.50
2017,08,14,19,32,14.50
2017,08,14,19,33,14.50
2017,08,14,19,34,14.50
2017,08,14,19,35,14.50
2017,08,14,19,36,14.50
2017,08,14,19,37,14.40
2017,08,14,19,38,14.40
2017,08,14,19,39,14.40
2017,08,14,19,40,14.40
2017,08,14,19,41,14.40
2017,08,14,19,42,14.40
2017,08,14,19,43,14.40
2017,08,14,19,44,14.40
2017,08,14,19,45,14.40
2017,08,14,19,46,14.40
2017,08,14,19,47,14.40
2017,08,14,19,48,14.40
2017,08,14,19,49,14.30
2017,08,14,19,50,14.30
2017,08,14,19,51,14.30
2017,08,14,19,52,14.30
2017,08,14,19,53,14.30
2017,08,14,19,54,14.20
2017,08,14,19,55,14.20
2017,08,14,19,56,14.20
2017,08,14,19,57,14.20
2017,08,14,19,58,14.20
2017,08,14,19,59,14.20
2017,08,14,20,00,14.20
2017,08,14,20,01,14.20
2017,08,14,20,02,14.20
2017,08,14,20,03,14.10
2017,08,14,20,04,14.10
2017,08,14,20,05,14.10
2017,08,14,20,06,14.10
2017,08,14,20,07,14.10
2017,08,14,20,08,14.10
2017,08,14,20,09,14.10
2017,08,14,20,10,14.10
2017,08,14,20,11,14.10
2017,08,14,20,12,14.10
2017,08,14,20,13,14.10
2017,08,14,20,14,14.10
2017,08,14,20,15,14.10
2017,08,14,20,16,14.10
2017,08,14,20,17,14.10
2017,08,14,20,18,14.10
